Regional Weather Roundup
Issued by NWS

Home | Current Version | Previous Version | Graphics & Text | Print | Product List | Glossary On
Versions: 1 2 3 4 5 6 7 8 9 10 11 12 13 14 15 16 17 18 19 20 21 22 23 24 25 26 27 28 29 30 31 32 33 34 35 36 37 38 39 40 41 42 43 44 45 46 47 48 49 50
279
ASUS43 KFSD 081002
RWRSD

WEATHER ROUNDUP FOR SOUTH DAKOTA
NATIONAL WEATHER SERVICE SIOUX FALLS SD
400 AM CST THU DEC 08 2016

NOTE: "FAIR" INDICATES FEW OR NO CLOUDS BELOW 12,000 FEET WITH NO
SIGNIFICANT WEATHER AND/OR OBSTRUCTIONS TO VISIBILITY.


SDZ001>005-009-010-012>017-081100-
NORTHWEST AND NORTH CENTRAL SOUTH DAKOTA

CITY           SKY/WX    TMP DP  RH WIND       PRES   REMARKS
BUFFALO          N/A     -3  -8  79 NW13      30.44S WCI -22
FAITH            N/A     -2  -6  83 NW17      30.53R WCI -23
MOBRIDGE       CLEAR      5  -4  66 NW22      30.50S WCI -16
$$

SDZ012>016-024>037-041>051-057-063-072>074-081100-
SOUTHWEST AND SOUTH CENTRAL SOUTH DAKOTA

CITY           SKY/WX    TMP DP  RH WIND       PRES   REMARKS
RAPID CTY ARPT CLEAR      1  -7  68 N13       30.52R WCI -17
PIERRE         MOCLDY     7   0  73 NW26      30.55R WCI -15
CUSTER         CLEAR     -3 -15  56 NW3       30.27S
ELLSWORTH AFB  CLEAR      2  -7  66 NW14      30.49S WCI -16
PHILIP         CLEAR      2  -5  72 NW10      30.59R WCI -14
PINE RIDGE     CLOUDY   -15 -19  82 CALM      30.53R
SPEARFISH      FAIR      -4 -11  71 W6        30.47S WCI -16
WINNER         CLOUDY     8  -1  66 NW24      30.55R WCI -13
$$

SDZ004>011-016>023-039-040-081100-
NORTHEAST SOUTH DAKOTA

CITY           SKY/WX    TMP DP  RH WIND       PRES   REMARKS
ABERDEEN       MOCLDY     9   2  73 NW21G31   30.47R WCI -11
WATERTOWN      CLOUDY     8   4  83 NW17G29   30.35R FOG     WCI -10
SISSETON         N/A     12   7  80 NW24G32   30.36R WCI  -8
$$

SDZ017-020-022-023-036>040-048>070-081100-
SOUTHEAST SOUTH DAKOTA

CITY           SKY/WX    TMP DP  RH WIND       PRES   REMARKS
SIOUX FALLS    CLEAR      8   3  80 NW20G29   30.41R WCI -11
HURON          CLOUDY     7   2  80 NW21G29   30.50R WCI -13
MITCHELL       CLOUDY     8   2  76 NW15      30.52R WCI  -9
YANKTON        CLEAR    N/A N/A N/A NW23G30   30.48S
$$

ABBREVIATIONS USED IN REMARKS
   TC - TEMPERATURE IN CELSIUS
  WCI - WIND CHILL INDEX
   HX - HEAT INDEX
  VSB - VISIBILITY





USA.gov is the U.S. government's official web portal to all federal, state and local government web resources and services.